Location: Proctor
(47.8934°N, 114.3048°W)
Time: 01:04:28
(UTC+00:00)

CAS-6 - Pass Details

Date: 01 July 2022
Orbit: 613 x 634 km, 97.9° (Epoch: 15 August)

Event Time Altitude Azimuth Distance (km) Brightness Sun altitude
Exits shadow 05:26:28 20° 144° (SE) 1,472 ? -12.8°
Maximum altitude 05:29:22 56° 72° (ENE) 746 ? -13.1°
Drops below altitude 10° 05:33:38 10° 354° (N) 2,004 ? -13.5°
Sets 05:35:51 0° 351° (N) 2,912 ? -13.6°
